Flag Weather past 2 weeks in Carouge, Geneva, Switzerland

Now
49 °F

Cool.


Feels Like: 49 °F
Forecast: 42 / 58 °F
Wind: 1 mph from Northwest

Location: Geneve-Cointrin

Current Time: Nov 27, 2014 at 9:21:27 AM

Latest Report: Nov 27, 2014 at 8:00 AM


Visibility: N/A

Pressure: 29.80 "Hg

Humidity: 91%

Dew point: 47 °F

Location of CarougeLocation

Historic Weather in Carouge — Graph

°F

Carouge temperature yesterday

Maximum temperature yesterday: 52 °F (at 3:00 PM)
Minimum temperature yesterday: 49 °F (at 2:00 AM)
Average temperature yesterday: 50 °F

Past Weeks' High & Low Weather Summary

 TemperatureHumidityPressure
High54 °F (Nov 13, 2:00 PM)96% (Nov 24, 3:00 AM)30.30 "Hg (Nov 24, 3:00 AM)
Low35 °F (Nov 20, 1:00 AM)58% (Nov 16, 3:00 PM)29.62 "Hg (Nov 15, 3:00 PM)
Average46 °F88%29.98 "Hg
* Reported Nov 12 8:00 AM — Nov 27 8:00 AM, Carouge, Weather by CustomWeather, © 2014

Note: Actual official high and low records may vary slightly from our data, if they occured in-between our weather recording intervals... More about our weather records

Advertising

Carouge weather history for previous 24 hours

 ConditionsComfort  
Time TempWeatherWind HumidityBarometerVisibility
8:00 AM
Nov 27
49 °FCool.1 mph91%29.80 "HgN/A
7:00 AM49 °FLight rain. Low clouds.3 mph92%29.80 "Hg2 mi
6:00 AM49 °FCool.2 mph92%29.81 "HgN/A
5:00 AM49 °FCool.2 mph92%29.82 "HgN/A
4:00 AM50 °FLight rain. Low clouds.6 mph91%29.82 "Hg5 mi
3:00 AM50 °FCool.1 mph89%29.84 "HgN/A
2:00 AM50 °FCool.1 mph89%29.85 "HgN/A
1:00 AM51 °FFog.2 mph89%29.86 "Hg6 mi
12:00 AM51 °FCool.2 mph89%29.88 "HgN/A
11:00 PM
Nov 26
51 °FCool.3 mph86%29.89 "HgN/A
10:00 PM51 °FFog.2 mph88%29.90 "Hg6 mi
9:00 PM51 °FCool.2 mph88%29.90 "HgN/A
8:00 PM51 °FCool.1 mph87%29.91 "HgN/A
7:00 PM51 °FFog.2 mph86%29.92 "Hg6 mi
6:00 PM51 °FCool.2 mph85%29.92 "HgN/A
5:00 PM51 °FCool.1 mph85%29.92 "HgN/A
4:00 PM52 °FFog.3 mph83%29.92 "Hg6 mi
3:00 PM52 °FCool.2 mph82%29.93 "HgN/A
2:00 PM51 °FCool.1 mph83%29.94 "HgN/A
1:00 PM51 °FFog.1 mph85%29.96 "Hg6 mi
12:00 PM51 °FCool.2 mph85%29.98 "HgN/A
11:00 AM51 °FCool.2 mph87%30.00 "HgN/A
10:00 AM50 °FFog.1 mph88%30.00 "Hg5 mi
9:00 AM50 °FCool.2 mph89%30.00 "HgN/A
Weather by CustomWeather, © 2014

See weather overviewHow to use our weather pages